Location: Unnamed
(48.6007°N, 2.4808°E)
Time: 07:42:57
(UTC+02:00)

VELOX 1 - Pass Details

Date: 29 March 2023
Orbit: 617 x 630 km, 98.4° (Epoch: 29 May)

Event Time Altitude Azimuth Distance (km) Brightness Sun altitude
Rises 21:17:22 0° 6° (N) 2,908 ? -10.8°
Reaches altitude 10° 21:19:44 10° 356° (N) 1,996 ? -11.1°
Maximum altitude 21:23:31 30° 295° (WNW) 1,111 ? -11.7°
Drops below altitude 10° 21:27:17 10° 234° (SW) 1,981 ? -12.3°
Sets 21:29:39 0° 223° (SW) 2,882 ? -12.7°
